DK8PN Weather Reports


time (UTC)temp
C
wind
direction
speed
KPH
gust
KPH
rain 1hr
cm
rain 24hr
cm
rain mn
cm
humidity
%
barometer
mb
20260508201508 13 25 0.0 0.0 0.00 0.00 0.00 70 1015.4
20260508200017 13 56 0.0 0.0 0.00 0.00 0.00 69 1015.3
20260508194511 14 24 0.0 0.0 0.00 0.00 0.00 67 1015.2
20260508193005 14 25 0.0 0.0 0.00 0.00 0.00 65 1015.0
20260508191506 15 5 0.0 0.0 0.00 0.00 0.00 64 1014.8
20260508190002 15 88 0.0 1.6 0.00 0.00 0.00 63 1014.6
20260508184501 15 58 0.0 8.0 0.00 0.00 0.00 62 1014.3
20260508183002 16 44 0.0 0.0 0.00 0.00 0.00 62 1014.3
20260508181501 16 56 0.0 4.8 0.00 0.00 0.00 61 1014.0
20260508180108 16 61 4.8 20.9 0.00 0.00 0.00 59 1014.0
20260508174600 17 63 6.4 17.7 0.00 0.00 0.00 59 1013.9
20260508173112 17 30 0.0 14.5 0.00 0.00 0.00 59 1013.6
20260508171559 17 35 6.4 16.1 0.00 0.00 0.00 58 1013.6
20260508170100 17 81 0.0 12.9 0.00 0.00 0.00 58 1013.5
20260508164557 17 47 8.0 17.7 0.00 0.00 0.00 58 1013.5
20260508163056 18 20 3.2 17.7 0.00 0.00 0.00 58 1013.5
20260508161556 18 82 1.6 17.7 0.00 0.00 0.00 58 1013.4
20260508160059 18 338 3.2 17.7 0.00 0.00 0.00 57 1013.5
20260508154553 18 52 3.2 16.1 0.00 0.00 0.00 57 1013.5
20260508153052 18 331 4.8 20.9 0.00 0.00 0.00 56 1013.4
20260508151551 18 55 1.6 16.1 0.00 0.00 0.00 57 1013.6
20260508150114 17 10 1.6 22.5 0.00 0.00 0.00 57 1013.7
20260508144558 18 36 1.6 17.7 0.00 0.00 0.00 57 1013.8
20260508143050 18 355 0.0 8.0 0.00 0.00 0.00 59 1014.0
20260508141644 18 51 6.4 17.7 0.00 0.00 0.00 58 1014.1
20260508140043 18 21 0.0 14.5 0.00 0.00 0.00 56 1014.1
20260508134534 17 355 1.6 14.5 0.00 0.00 0.00 58 1014.3
20260508133037 18 67 0.0 8.0 0.00 0.00 0.00 56 1014.5
20260508131533 17 331 0.0 9.7 0.00 0.00 0.00 57 1014.5
20260508130030 17 53 0.0 14.5 0.00 0.00 0.00 56 1014.6
20260508124526 17 295 1.6 14.5 0.00 0.00 0.00 56 1014.6
20260508123026 18 134 0.0 11.3 0.00 0.00 0.00 53 1014.8
20260508121525 17 63 3.2 20.9 0.00 0.00 0.00 57 1015.0
20260508120023 18 5 1.6 6.4 0.00 0.00 0.00 56 1014.8
20260508114530 16 52 0.0 9.7 0.00 0.00 0.00 60 1014.9
20260508113027 17 5 3.2 14.5 0.00 0.00 0.00 57 1015.1
20260508111518 16 298 6.4 16.1 0.00 0.00 0.00 59 1015.2
20260508110016 17 26 0.0 6.4 0.00 0.00 0.00 59 1015.3
20260508104515 17 302 0.0 0.0 0.00 0.00 0.00 59 1015.5
20260508103012 16 101 1.6 20.9 0.00 0.00 0.00 62 1015.6
20260508101510 17 109 0.0 12.9 0.00 0.00 0.00 63 1015.6
20260508100008 15 28 0.0 17.7 0.00 0.00 0.00 65 1015.7
20260508094506 15 339 1.6 14.5 0.00 0.00 0.00 65 1015.7
20260508093007 15 311 0.0 9.7 0.00 0.00 0.00 66 1015.8
20260508091502 15 360 0.0 0.0 0.00 0.00 0.00 67 1016.0
20260508084558 14 291 0.0 0.0 0.00 0.03 0.00 71 1015.9
20260508083057 14 26 0.0 0.0 0.00 0.03 0.00 72 1015.8
20260508081601 14 163 0.0 0.0 0.00 0.03 0.00 72 1015.8
20260508080056 12 78 0.0 0.0 0.00 0.03 0.00 80 1015.8
20260508074545 12 153 0.0 0.0 0.00 0.05 0.00 81 1015.9
20260508073042 11 44 0.0 0.0 0.00 0.05 0.00 85 1015.8
20260508071540 10 5 0.0 0.0 0.00 0.05 0.00 87 1015.8
20260508070035 9 5 0.0 0.0 0.00 0.05 0.00 91 1016.0
20260508064548 8 5 0.0 0.0 0.00 0.10 0.00 93 1016.0
20260508063028 7 5 0.0 0.0 0.00 0.10 0.00 95 1016.0
20260508061521 6 5 0.0 0.0 0.00 0.10 0.00 95 1015.9
20260508060021 6 5 0.0 0.0 0.00 0.10 0.00 96 1016.0
20260508054529 5 5 0.0 0.0 0.00 0.20 0.00 95 1016.0
20260508053018 5 5 0.0 0.0 0.00 0.20 0.00 95 1015.9
20260508051524 5 5 0.0 0.0 0.00 0.20 0.00 95 1015.8
20260508050021 4 5 0.0 0.0 0.00 0.20 0.00 95 1015.7
20260508044513 3 5 0.0 0.0 0.00 0.25 0.00 95 1015.5
20260508043014 3 5 0.0 0.0 0.00 0.25 0.00 95 1015.4
20260508041509 3 5 0.0 0.0 0.00 0.25 0.00 95 1015.2
20260508040007 3 5 0.0 0.0 0.00 0.25 0.00 95 1015.2
20260508034519 3 5 0.0 0.0 0.00 0.30 0.00 95 1015.1
20260508033006 3 5 0.0 0.0 0.00 0.30 0.00 95 1015.2
20260508031507 3 5 0.0 0.0 0.00 0.30 0.00 95 1015.2
20260508030006 3 5 0.0 0.0 0.00 0.30 0.00 95 1015.0
20260508024505 3 5 0.0 0.0 0.00 0.33 0.00 94 1015.0
20260508023002 3 5 0.0 0.0 0.00 0.33 0.00 95 1015.0
20260508021606 3 5 0.0 0.0 0.00 0.33 0.00 95 1015.0
20260508020059 3 5 0.0 0.0 0.00 0.33 0.00 94 1015.0
20260508014558 3 5 0.0 0.0 0.00 0.41 0.00 94 1014.9
20260508013056 3 5 0.0 0.0 0.00 0.41 0.00 95 1015.0
20260508011604 3 5 0.0 0.0 0.00 0.41 0.00 94 1015.0
20260508010053 4 5 0.0 0.0 0.00 0.41 0.00 95 1015.1
20260508004552 4 5 0.0 0.0 0.00 0.41 0.00 95 1015.2
20260508003051 4 5 0.0 0.0 0.00 0.41 0.00 95 1015.2
20260508001548 4 5 0.0 0.0 0.00 0.41 0.00 95 1015.3
20260507234548 5 5 0.0 0.0 0.00 0.43 0.00 95 1015.5
20260507233045 5 5 0.0 0.0 0.00 0.43 0.00 94 1015.5
20260507231545 5 5 0.0 0.0 0.00 0.43 0.00 94 1015.6
20260507230041 5 5 0.0 0.0 0.00 0.43 0.00 94 1015.6
20260507224540 5 5 0.0 0.0 0.00 0.43 0.00 94 1015.6
20260507223039 6 5 0.0 0.0 0.00 0.43 0.00 94 1015.5
20260507221536 6 5 0.0 0.0 0.00 0.43 0.00 93 1015.5
20260507220031 6 5 0.0 0.0 0.00 0.43 0.00 93 1015.6
20260507214531 6 5 0.0 0.0 0.00 0.48 0.43 93 1015.5
20260507213027 7 5 0.0 0.0 0.00 0.48 0.43 93 1015.4
20260507211536 7 5 0.0 0.0 0.00 0.48 0.43 93 1015.4
20260507210025 7 5 0.0 0.0 0.00 0.48 0.43 91 1015.5
20260507204524 7 5 0.0 0.0 0.00 0.61 0.43 92 1015.5
20260507203022 7 5 0.0 0.0 0.00 0.61 0.43 91 1015.3